Погода в Поведниках

Россия / Московская область     55°58′34″N   37°36′30″E
темп.,
°C
ветер,
м/с
пор.,
м/с
влажн.,
%
обл.,
%
осадки,
мм/ч
давл.,
гПа
погр.,
м
15 мая, сб
сб1500:00+14вюв41096100 1.7 1011282
03:00+13вюв3899100 1.7 1010198
06:00+14вюв4109722 0.0 1008322
09:00+18юв468591 2.1 1008665
12:00+21ю466924 0.6 10081158
15:00+22ю485491 1.7 10072003
18:00+20ююз595912 0.7 10081008
21:00+15ю411805 1.0 1008480
16 мая, вс
вс1600:00+14ююз411875 0.0 1009562
03:00+12ююз4109535 0.0 1010450
06:00+13ююз411905 0.0 1011442
09:00+17ююз69660 0.0 1012904
12:00+20ююз694928 0.0 10121902
15:00+19ююз5857100 0.1 10121193
18:00+19зюз586623 0.0 10131151
21:00+15зюз22860 0.0 101441
17 мая, пн
пн1700:00+13зюз118991 0.0 101512
03:00+13ююв229098 0.0 101517
06:00+13юв258895 0.0 1015130
09:00+19юв356392 0.0 1015504
12:00+23вюв465133 0.0 10131225
15:00+26вюв684560 0.0 10121748
18:00+24юв596054 0.0 1010938
21:00+20юв5138053 0.1 1010510
18 мая, вт
вт1800:00+18юв5147967 0.0 1009455
03:00+17юв4138349 0.0 1008370
06:00+16юв51278100 0.0 1007391
09:00+20юв6961100 0.0 1007526
12:00+23ююв71054100 0.0 10061029
15:00+23ююв71069100 0.7 10061234
18:00+20ююв4118295 1.8 1005679
21:00+18ю7148366 4.1 1006711
19 мая, ср
ср1900:00+16ю4109388 1.2 1006480
03:00+15ю3796100 1.2 1006445
06:00+15юв2494100 0.0 1006209
09:00+18ююв577841 0.1 1005770
12:00+17ююв5978100 1.4 1005980
15:00+18ю7107997 4.2 10041140
18:00+16юз6108542 1.6 1004865
21:00+13зюз61288100 1.6 1008959